QPF
0.00 0.00 0.00 0.00 0.00 0.00 0.00 0.00 0.00 0.00 0.07 0.10 0.06 0.07 0.15 0.16 0.19 0.31 0.16 0.08 0.05 0.07
0.00 0.00 0.00 0.00 0.00 0.00 0.00 0.00 0.00 0.00 0.05 0.13 0.09 0.01 0.09 0.15 0.16 0.18 0.15 0.04 0.06 0.05
0.00 0.00 0.00 0.00 0.00 0.00 0.00 0.00 0.00 0.00 0.03 0.15 0.13 0.02 0.02 0.14 0.27 0.28 0.13 0.12 0.02 0.08
0.00 0.00 0.00 0.00 0.00 0.00 0.00 0.00 0.00 0.00 0.01 0.03 0.03 0.03 0.06 0.05 0.12 0.13 0.16 0.18 0.16 0.22
0.00 0.00 0.00 0.00 0.00 0.00 0.00 0.00 0.00 0.00 0.01 0.00 0.00 0.00 0.00 0.00 0.00 0.00 0.00 0.00 0.03 0.05
0.00 0.00 0.00 0.00 0.00 0.00 0.00 0.00 0.00 0.00 0.00 0.00 0.00 0.00 0.00 0.00 0.00 0.00 0.00 0.00 0.00 0.00
0.00 0.00 0.00 0.00 0.00 0.00 0.00 0.00 0.00 0.00 0.00 0.00 0.01 0.00 0.00 0.00 0.00 0.00 0.00 0.00 0.00 0.00
0.00 0.00 0.00 0.00 0.00 0.00 0.00 0.00 0.00 0.00 0.00 0.00 0.00 0.00 0.00 0.00 0.00 0.00 0.00 0.00 0.00 0.00
0.00 0.00 0.00 0.00 0.00 0.00 0.00 0.00 0.00 0.00 0.00 0.00 0.00 0.00 0.00 0.00 0.00 0.00 0.00 0.00 0.00 0.00
0.01 0.00 0.00 0.00 0.00 0.00 0.00 0.00 0.00 0.00 0.00 0.00 0.00 0.00 0.00 0.00 0.00 0.00 0.00 0.00 0.00 0.00
0.04 0.02 0.01 0.00 0.00 0.00 0.00 0.00 0.00 0.00 0.00 0.00 0.00 0.00 0.00 0.00 0.00 0.00 0.00 0.00 0.00 0.00
0.05 0.02 0.05 0.01 0.01 0.00 0.00 0.00 0.00 0.00 0.00 0.00 0.00 0.00 0.00 0.00 0.00 0.00 0.00 0.00 0.00 0.00
0.02 0.07 0.04 0.01 0.00 0.00 0.00 0.00 0.00 0.00 0.00 0.00 0.00 0.00 0.00 0.00 0.00 0.00 0.00 0.00 0.00 0.00
0.01 0.00 0.01 0.00 0.00 0.00 0.00 0.00 0.00 0.00 0.00 0.00 0.00 0.00 0.00 0.00 0.00 0.00 0.00 0.00 0.00 0.00
MSLP
1013.22 1013.20 1013.34 1013.86 1013.77 1013.70 1013.84 1013.90 1013.90 1013.59 1013.07 1012.62 1012.20 1012.19 1012.30 1012.46 1012.34 1012.51 1012.82 1013.30 1013.61 1013.78
1013.50 1013.65 1014.05 1014.25 1013.97 1014.22 1014.55 1014.54 1014.30 1013.75 1013.28 1012.92 1012.58 1012.55 1012.54 1012.41 1012.36 1012.55 1012.88 1013.15 1013.68 1013.96
1013.55 1013.96 1014.30 1014.26 1014.44 1014.66 1015.02 1014.80 1014.41 1013.91 1013.71 1013.47 1013.26 1013.06 1013.02 1013.03 1012.70 1012.72 1013.05 1013.25 1013.56 1013.80
1013.42 1014.08 1014.39 1014.34 1014.65 1015.06 1015.23 1015.01 1014.63 1014.35 1014.24 1014.05 1013.93 1013.75 1013.67 1013.50 1013.51 1013.57 1013.57 1013.60 1013.70 1013.82
1013.65 1014.11 1014.49 1014.49 1014.80 1015.14 1015.19 1015.18 1015.03 1014.84 1014.85 1014.87 1014.88 1014.89 1014.85 1014.84 1014.95 1014.82 1014.76 1014.70 1014.59 1014.58
1013.73 1014.26 1014.59 1014.67 1015.05 1015.29 1015.39 1015.33 1015.38 1015.28 1015.30 1015.31 1015.52 1015.73 1015.91 1015.98 1016.05 1016.08 1016.13 1016.00 1015.93 1015.81
1013.63 1014.35 1014.66 1014.92 1015.17 1015.38 1015.60 1015.47 1015.69 1015.75 1015.71 1015.75 1016.11 1016.39 1016.59 1016.70 1016.73 1016.80 1016.84 1016.84 1016.77 1016.70
1013.67 1014.38 1014.66 1015.27 1015.51 1015.60 1015.70 1015.87 1016.01 1016.06 1016.23 1016.35 1016.70 1017.20 1017.12 1017.04 1017.10 1017.18 1017.28 1017.36 1017.46 1017.57
1013.77 1014.37 1014.71 1015.32 1015.78 1015.98 1016.14 1016.30 1016.36 1016.55 1016.87 1017.15 1017.55 1017.67 1017.59 1017.43 1017.26 1017.27 1017.36 1017.48 1017.71 1017.79
1013.72 1014.39 1014.73 1015.45 1015.89 1016.29 1016.50 1016.56 1016.65 1017.04 1017.44 1017.78 1018.13 1018.18 1018.06 1017.90 1017.69 1017.63 1017.74 1017.84 1017.73 1017.95
1013.52 1014.17 1014.67 1015.51 1016.18 1016.74 1016.74 1016.94 1017.01 1017.37 1017.92 1018.33 1018.82 1018.71 1018.49 1018.28 1018.19 1018.30 1018.66 1018.78 1018.64 1018.81
1013.61 1014.24 1014.86 1015.69 1016.36 1016.94 1017.10 1017.28 1017.39 1017.78 1018.17 1018.58 1019.25 1019.30 1019.03 1018.70 1018.57 1019.00 1019.32 1019.69 1019.69 1019.61
1014.20 1014.40 1015.12 1015.80 1016.42 1016.92 1017.31 1017.49 1017.88 1018.25 1018.84 1019.22 1019.54 1019.68 1019.33 1018.85 1018.70 1018.91 1019.45 1019.84 1020.28 1020.51
1015.33 1015.24 1015.49 1016.09 1016.64 1017.02 1017.42 1017.84 1018.31 1018.80 1019.40 1019.91 1020.21 1020.28 1019.89 1019.35 1019.08 1018.92 1019.01 1019.45 1020.37 1021.06
Thickness
5757 5755 5753 5745 5744 5742 5739 5738 5737 5737 5742 5745 5746 5744 5739 5735 5735 5732 5729 5727 5726 5726
5753 5750 5744 5742 5743 5738 5735 5733 5733 5738 5740 5741 5741 5738 5734 5732 5733 5731 5729 5728 5725 5723
5751 5747 5743 5742 5738 5736 5732 5731 5733 5737 5736 5736 5737 5735 5731 5728 5728 5727 5727 5726 5724 5724
5750 5744 5741 5741 5738 5733 5730 5731 5733 5733 5732 5732 5732 5730 5727 5726 5724 5722 5722 5722 5722 5722
5746 5742 5739 5739 5737 5733 5731 5731 5730 5730 5726 5725 5724 5722 5719 5717 5714 5713 5713 5713 5715 5716
5742 5738 5738 5737 5735 5731 5730 5730 5728 5727 5724 5722 5719 5715 5711 5708 5706 5704 5703 5704 5704 5706
5742 5737 5736 5734 5733 5730 5728 5728 5724 5722 5721 5719 5714 5710 5707 5703 5702 5700 5699 5699 5698 5698
5740 5736 5734 5729 5728 5727 5726 5723 5720 5718 5717 5714 5710 5703 5703 5702 5700 5697 5695 5693 5692 5690
5738 5734 5732 5727 5723 5722 5719 5717 5715 5713 5710 5706 5702 5698 5697 5698 5698 5696 5694 5691 5688 5686
5738 5733 5731 5724 5720 5716 5713 5712 5710 5706 5702 5699 5695 5691 5691 5691 5693 5692 5689 5686 5685 5682
5738 5733 5730 5720 5714 5709 5709 5706 5705 5700 5695 5691 5685 5683 5684 5684 5685 5681 5675 5673 5673 5671
5735 5728 5723 5714 5708 5704 5702 5699 5698 5694 5689 5685 5678 5674 5675 5676 5676 5669 5664 5659 5656 5658
5727 5725 5718 5712 5705 5700 5696 5694 5690 5685 5680 5674 5670 5666 5667 5670 5670 5664 5658 5652 5646 5641
5714 5714 5711 5706 5701 5695 5690 5686 5681 5676 5670 5664 5659 5656 5657 5659 5662 5659 5656 5649 5640 5633